TimeCST,TemperatureF,Dew PointF,Humidity,Sea Level PressureIn,VisibilityMPH,Wind Direction,Wind SpeedMPH,Gust SpeedMPH,PrecipitationIn,Events,Conditions,WindDirDegrees,DateUTC
12:15 AM,26.6,23.0,86,30.23,10.0,North,8.1,-,N/A,Snow,Light Snow,350,2013-03-02 06:15:00
12:35 AM,26.6,22.3,84,30.23,10.0,North,9.2,-,N/A,,Overcast,360,2013-03-02 06:35:00
12:55 AM,26.6,22.1,83,30.23,10.0,North,8.1,-,N/A,,Overcast,350,2013-03-02 06:55:00
1:15 AM,26.6,21.7,82,30.23,10.0,North,9.2,-,N/A,,Overcast,350,2013-03-02 07:15:00
1:35 AM,26.6,21.4,81,30.23,10.0,North,9.2,-,N/A,,Overcast,350,2013-03-02 07:35:00
1:55 AM,26.6,21.2,80,30.23,10.0,NNW,9.2,-,N/A,,Overcast,330,2013-03-02 07:55:00
2:15 AM,26.6,21.2,80,30.23,10.0,NNW,9.2,-,N/A,,Overcast,330,2013-03-02 08:15:00
2:35 AM,26.4,21.0,80,30.22,10.0,NW,10.4,-,N/A,,Overcast,320,2013-03-02 08:35:00
2:55 AM,26.4,20.7,79,30.22,10.0,NNW,10.4,-,N/A,,Overcast,330,2013-03-02 08:55:00
3:15 AM,26.4,20.3,78,30.22,10.0,NNW,10.4,-,N/A,,Overcast,340,2013-03-02 09:15:00
3:35 AM,26.2,19.4,75,30.21,10.0,NNW,12.7,-,N/A,,Overcast,340,2013-03-02 09:35:00
3:55 AM,26.1,19.0,75,30.22,10.0,NNW,10.4,-,N/A,,Overcast,340,2013-03-02 09:55:00
4:15 AM,26.2,19.2,75,30.22,10.0,NNW,10.4,-,N/A,,Overcast,330,2013-03-02 10:15:00
4:35 AM,26.1,19.9,78,30.22,10.0,NNW,8.1,-,N/A,,Overcast,340,2013-03-02 10:35:00
4:55 AM,26.6,19.4,74,30.22,10.0,NW,10.4,-,N/A,,Overcast,320,2013-03-02 10:55:00
5:15 AM,26.1,20.7,80,30.23,10.0,NW,9.2,-,N/A,,Overcast,320,2013-03-02 11:15:00
5:35 AM,25.7,21.9,86,30.23,5.0,NW,9.2,-,N/A,Snow,Light Snow,320,2013-03-02 11:35:00
5:55 AM,25.7,22.5,88,30.23,7.0,NW,9.2,-,N/A,Snow,Light Snow,320,2013-03-02 11:55:00
6:15 AM,26.1,22.1,85,30.24,10.0,NW,10.4,-,N/A,,Overcast,320,2013-03-02 12:15:00
6:35 AM,26.1,21.7,84,30.24,10.0,NW,9.2,-,N/A,,Overcast,320,2013-03-02 12:35:00
6:55 AM,26.1,21.2,82,30.25,10.0,NW,8.1,-,N/A,,Overcast,320,2013-03-02 12:55:00
7:15 AM,26.1,20.8,81,30.25,10.0,NW,9.2,-,N/A,,Overcast,310,2013-03-02 13:15:00
7:35 AM,26.4,20.5,78,30.26,10.0,WNW,6.9,-,N/A,,Overcast,300,2013-03-02 13:35:00
7:55 AM,26.4,20.8,79,30.26,10.0,NW,6.9,-,N/A,,Overcast,310,2013-03-02 13:55:00
8:15 AM,26.6,20.5,78,30.26,10.0,NW,6.9,-,N/A,,Overcast,310,2013-03-02 14:15:00
8:35 AM,26.6,20.1,77,30.26,10.0,NW,8.1,-,N/A,,Overcast,320,2013-03-02 14:35:00
8:55 AM,27.3,19.4,72,30.26,10.0,NW,6.9,-,N/A,,Scattered Clouds,310,2013-03-02 14:55:00
9:15 AM,27.7,19.2,71,30.27,10.0,WNW,8.1,-,N/A,,Clear,300,2013-03-02 15:15:00
9:35 AM,28.0,18.9,68,30.27,10.0,NW,10.4,-,N/A,,Clear,310,2013-03-02 15:35:00
9:55 AM,28.9,19.4,68,30.27,10.0,WNW,8.1,-,N/A,,Clear,300,2013-03-02 15:55:00
10:15 AM,29.3,19.2,66,30.27,10.0,WNW,9.2,-,N/A,,Clear,290,2013-03-02 16:15:00
10:35 AM,29.8,19.0,64,30.27,10.0,WNW,10.4,-,N/A,,Clear,300,2013-03-02 16:35:00
10:55 AM,30.0,18.5,62,30.27,10.0,WNW,11.5,-,N/A,,Scattered Clouds,300,2013-03-02 16:55:00
11:15 AM,30.6,18.7,61,30.27,10.0,WNW,10.4,-,N/A,,Clear,300,2013-03-02 17:15:00
11:35 AM,30.7,18.9,61,30.27,10.0,WNW,12.7,18.4,N/A,,Clear,290,2013-03-02 17:35:00
11:55 AM,30.7,18.7,61,30.27,10.0,WNW,10.4,16.1,N/A,,Scattered Clouds,300,2013-03-02 17:55:00
12:15 PM,30.9,18.1,59,30.26,10.0,WNW,9.2,-,N/A,,Scattered Clouds,300,2013-03-02 18:15:00
12:35 PM,31.1,18.1,59,30.25,10.0,WNW,10.4,-,N/A,,Clear,300,2013-03-02 18:35:00
12:55 PM,32.0,18.1,57,30.25,10.0,WNW,9.2,-,N/A,,Clear,290,2013-03-02 18:55:00
1:15 PM,32.0,18.0,56,30.24,10.0,WNW,9.2,-,N/A,,Mostly Cloudy,300,2013-03-02 19:15:00
1:35 PM,32.0,17.4,55,30.23,10.0,WNW,9.2,-,N/A,,Mostly Cloudy,300,2013-03-02 19:35:00
1:55 PM,32.0,17.2,55,30.23,10.0,WNW,9.2,-,N/A,,Scattered Clouds,300,2013-03-02 19:55:00
2:15 PM,32.4,18.0,55,30.23,10.0,WNW,8.1,-,N/A,,Clear,300,2013-03-02 20:15:00
2:35 PM,32.2,17.2,54,30.23,10.0,NW,8.1,-,N/A,,Scattered Clouds,310,2013-03-02 20:35:00
2:55 PM,32.0,18.0,56,30.22,10.0,WNW,6.9,-,N/A,,Scattered Clouds,300,2013-03-02 20:55:00
3:15 PM,32.0,15.8,51,30.22,10.0,NNW,10.4,-,N/A,,Scattered Clouds,330,2013-03-02 21:15:00
3:35 PM,31.6,15.4,51,30.22,10.0,NNW,9.2,-,N/A,,Clear,340,2013-03-02 21:35:00
3:55 PM,31.1,16.2,54,30.22,10.0,NNW,9.2,-,N/A,,Clear,340,2013-03-02 21:55:00
4:15 PM,30.9,16.2,54,30.23,10.0,NW,9.2,-,N/A,,Clear,320,2013-03-02 22:15:00
4:35 PM,30.7,16.0,54,30.23,10.0,NNW,9.2,-,N/A,,Clear,330,2013-03-02 22:35:00
4:55 PM,29.8,16.2,57,30.23,10.0,NW,9.2,-,N/A,,Clear,320,2013-03-02 22:55:00
5:15 PM,29.7,16.7,59,30.24,10.0,NW,5.8,-,N/A,,Scattered Clouds,310,2013-03-02 23:15:00
5:35 PM,28.2,15.8,60,30.24,10.0,NW,6.9,-,N/A,,Scattered Clouds,320,2013-03-02 23:35:00
5:55 PM,27.0,14.7,60,30.24,10.0,NNW,4.6,-,N/A,,Clear,340,2013-03-02 23:55:00
6:15 PM,26.6,13.8,59,30.23,10.0,NNW,4.6,-,N/A,,Clear,340,2013-03-03 00:15:00
6:55 PM,25.9,13.5,59,30.24,10.0,NNW,4.6,-,N/A,,Clear,330,2013-03-03 00:55:00
7:15 PM,25.0,13.1,61,30.24,10.0,NNW,3.5,-,N/A,,Clear,330,2013-03-03 01:15:00
7:35 PM,24.8,13.1,61,30.24,10.0,WNW,3.5,-,N/A,,Clear,290,2013-03-03 01:35:00
7:55 PM,23.7,13.8,66,30.24,10.0,WNW,3.5,-,N/A,,Clear,290,2013-03-03 01:55:00
8:15 PM,22.6,13.5,68,30.23,10.0,Calm,Calm,-,N/A,,Clear,0,2013-03-03 02:15:00
8:35 PM,21.6,13.3,70,30.24,10.0,WNW,4.6,-,N/A,,Clear,290,2013-03-03 02:35:00
8:55 PM,20.7,13.1,73,30.24,10.0,NW,3.5,-,N/A,,Clear,320,2013-03-03 02:55:00
9:15 PM,21.9,13.5,70,30.24,10.0,NW,4.6,-,N/A,,Clear,320,2013-03-03 03:15:00
9:35 PM,19.4,12.9,76,30.24,10.0,West,3.5,-,N/A,,Clear,280,2013-03-03 03:35:00
9:55 PM,18.3,12.2,77,30.23,10.0,WNW,3.5,-,N/A,,Clear,300,2013-03-03 03:55:00
10:15 PM,18.5,12.4,77,30.23,10.0,West,3.5,-,N/A,,Clear,280,2013-03-03 04:15:00
10:35 PM,15.8,10.9,81,30.23,10.0,WNW,4.6,-,N/A,,Clear,290,2013-03-03 04:35:00
10:55 PM,17.1,11.8,80,30.23,10.0,WNW,4.6,-,N/A,,Clear,290,2013-03-03 04:55:00
11:15 PM,14.9,10.4,82,30.23,10.0,WNW,4.6,-,N/A,,Clear,300,2013-03-03 05:15:00
11:35 PM,13.8,9.7,84,30.23,10.0,WNW,5.8,-,N/A,,Clear,290,2013-03-03 05:35:00
11:55 PM,13.8,9.7,84,30.22,10.0,WNW,4.6,-,N/A,,Clear,300,2013-03-03 05:55:00